Location: Paderno d�Adda
(45.6667°N, 9.4333°E)
Time: 10:32:24
(UTC+00:00)

ATLAS 3B R/B - Pass Details

Date: 19 January 2021
Orbit: 1006 x 1189 km, 63.8° (Epoch: 07 March)

Event Time Altitude Azimuth Distance (km) Brightness Sun altitude
Rises 17:47:01 0° 316° (NW) 3,885 6.1 -16.6°
Reaches altitude 10° 17:49:53 10° 307° (NW) 2,954 5.6 -17.1°
Maximum altitude 17:56:00 33° 247° (WSW) 1,797 4.6 -18.2°
Drops below altitude 10° 18:02:18 10° 186° (S) 3,050 5.3 -19.3°
Sets 18:05:20 0° 177° (S) 4,028 5.8 -19.8°
